EW1090 Weather Reports


Display with metric or nautical units.
time (UTC)temp
F
wind
direction
speed
MPH
gust
MPH
rain 1hr
in
rain 24hr
in
rain mn
in
humidity
%
barometer
mb
20181213014828 56 13 0.0 0.0 0.00 0.00 0.00 87 1019.3
20181213013326 56 13 0.0 0.0 0.00 0.00 0.00 86 1019.4
20181213011832 57 13 0.0 2.0 0.00 0.00 0.00 86 1019.8
20181213010331 57 142 0.0 2.0 0.00 0.00 0.00 86 1019.6
20181213004833 57 150 0.0 2.0 0.00 0.00 0.00 86 1019.3
20181213003316 57 150 0.0 3.0 0.00 0.00 0.00 86 1019.3
20181213001818 57 136 0.0 2.0 0.00 0.00 0.00 85 1019.5
20181213000322 58 136 0.0 3.0 0.00 0.00 0.00 85 1020.1
20181212234825 58 154 0.0 3.0 0.00 0.00 0.00 84 1019.6
20181212233323 58 139 1.0 4.0 0.00 0.00 0.00 84 1019.8
20181212231830 58 153 1.0 4.0 0.00 0.00 0.00 84 1019.8
20181212230329 59 149 1.0 3.0 0.00 0.00 0.00 83 1020.1
20181212224831 59 134 0.0 3.0 0.00 0.00 0.00 82 1020.0
20181212223335 59 127 1.0 4.0 0.00 0.00 0.00 81 1020.3
20181212221836 59 102 1.0 4.0 0.00 0.00 0.00 81 1020.2
20181212220318 60 96 1.0 5.0 0.00 0.00 0.00 80 1020.2
20181212214820 60 153 2.0 5.0 0.00 0.00 0.00 80 1020.3
20181212213320 60 155 1.0 4.0 0.00 0.00 0.00 80 1020.7
20181212211825 60 148 1.0 5.0 0.00 0.00 0.00 79 1020.5
20181212210323 60 59 2.0 5.0 0.00 0.00 0.00 79 1020.3
20181212204829 60 107 2.0 9.0 0.00 0.00 0.00 78 1020.4
20181212203329 60 109 1.0 5.0 0.00 0.00 0.00 77 1020.7
20181212201830 61 81 1.0 7.0 0.00 0.00 0.00 77 1020.9
20181212200333 61 105 2.0 8.0 0.00 0.00 0.00 76 1020.8
20181212194834 61 69 2.0 5.0 0.00 0.00 0.00 74 1021.1
20181212193317 62 51 1.0 6.0 0.00 0.00 0.00 73 1021.3
20181212191818 62 132 1.0 5.0 0.00 0.00 0.00 73 1021.9
20181212190318 62 121 2.0 5.0 0.00 0.00 0.00 72 1022.3
20181212184824 62 78 1.0 5.0 0.00 0.00 0.00 73 1022.1
20181212183323 62 84 2.0 4.0 0.00 0.00 0.00 72 1022.7
20181212181828 61 52 1.0 7.0 0.00 0.00 0.00 74 1023.2
20181212180327 61 82 1.0 5.0 0.00 0.00 0.00 74 1023.1
20181212174829 61 67 1.0 4.0 0.00 0.00 0.00 74 1023.3
20181212173333 61 63 1.0 4.0 0.00 0.00 0.00 73 1024.1
20181212171836 60 60 0.0 3.0 0.00 0.00 0.00 74 1024.0
20181212170319 60 68 1.0 3.0 0.00 0.00 0.00 73 1024.3
20181212164822 60 67 0.0 4.0 0.00 0.00 0.00 72 1024.7
20181212163320 60 138 0.0 2.0 0.00 0.00 0.00 73 1025.5
20181212161827 60 82 1.0 3.0 0.00 0.00 0.00 73 1025.3
20181212160326 59 71 1.0 3.0 0.00 0.00 0.00 71 1025.4
20181212154829 57 80 0.0 3.0 0.00 0.00 0.00 69 1025.7
20181212153333 56 73 1.0 3.0 0.00 0.00 0.00 66 1025.6
20181212151835 55 66 1.0 3.0 0.00 0.00 0.00 68 1025.4
20181212150318 53 65 0.0 3.0 0.00 0.00 0.00 73 1025.3
20181212144818 51 78 1.0 2.0 0.00 0.00 0.00 77 1025.3
20181212143318 48 68 1.0 5.0 0.00 0.00 0.00 88 1025.5
20181212141823 47 69 0.0 4.0 0.00 0.00 0.00 94 1025.2
20181212140321 45 49 0.0 3.0 0.00 0.00 0.00 97 1025.2
20181212134827 42 17 1.0 2.0 0.00 0.00 0.00 97 1025.1
20181212133325 40 15 0.0 0.0 0.00 0.00 0.00 95 1025.4
20181212131827 39 15 0.0 0.0 0.00 0.00 0.00 96 1025.9
20181212130329 39 15 0.0 0.0 0.00 0.00 0.00 95 1025.8
20181212124830 38 15 0.0 0.0 0.00 0.00 0.00 95 1025.5
20181212123333 38 15 0.0 0.0 0.00 0.00 0.00 95 1025.6
20181212121834 37 15 0.0 0.0 0.00 0.00 0.00 95 1025.6
20181212120334 37 15 0.0 0.0 0.00 0.00 0.00 95 1025.7
20181212114819 37 15 0.0 0.0 0.00 0.00 0.00 94 1025.8
20181212113318 37 15 0.0 0.0 0.00 0.00 0.00 95 1025.6
20181212111825 37 15 0.0 0.0 0.00 0.00 0.00 95 1025.6
20181212110323 36 15 0.0 0.0 0.00 0.00 0.00 94 1025.4
20181212104825 36 15 0.0 0.0 0.00 0.00 0.00 94 1025.0
20181212103328 36 15 0.0 0.0 0.00 0.00 0.00 94 1025.0
20181212101830 36 15 0.0 0.0 0.00 0.00 0.00 94 1025.2
20181212100329 36 15 0.0 0.0 0.00 0.00 0.00 93 1025.3
20181212094834 37 15 0.0 0.0 0.00 0.00 0.00 94 1025.2
20181212093332 37 15 0.0 0.0 0.00 0.00 0.00 94 1025.1
20181212091837 37 15 0.0 0.0 0.00 0.00 0.00 93 1025.3
20181212090335 37 15 0.0 0.0 0.00 0.00 0.00 93 1025.7
20181212084838 37 15 0.0 0.0 0.00 0.00 0.00 92 1025.8
20181212083321 38 15 0.0 0.0 0.00 0.00 0.00 92 1025.7
20181212081823 38 15 0.0 0.0 0.00 0.00 0.00 92 1025.9
20181212080325 38 15 0.0 0.0 0.00 0.00 0.00 92 1026.0
20181212074827 38 15 0.0 0.0 0.00 0.00 0.00 91 1025.8
20181212073326 39 15 0.0 0.0 0.00 0.00 0.00 91 1026.1
20181212071831 39 15 0.0 0.0 0.00 0.00 0.00 91 1026.6
20181212070331 40 15 0.0 0.0 0.00 0.00 0.00 90 1026.4
20181212064837 40 15 0.0 0.0 0.00 0.00 0.00 89 1026.1
20181212063336 40 15 0.0 0.0 0.00 0.00 0.00 89 1026.4
20181212061837 40 15 0.0 0.0 0.00 0.00 0.00 89 1026.6
20181212060319 40 15 0.0 0.0 0.00 0.00 0.00 88 1026.6
20181212054820 40 15 0.0 0.0 0.00 0.00 0.00 88 1026.9
20181212053323 40 15 0.0 0.0 0.00 0.00 0.00 87 1026.9
20181212051823 41 15 0.0 0.0 0.00 0.00 0.00 86 1027.2
20181212050322 40 15 0.0 0.0 0.00 0.00 0.00 85 1026.7
20181212044827 40 15 0.0 0.0 0.00 0.00 0.00 84 1026.7
20181212043326 40 15 0.0 0.0 0.00 0.00 0.00 83 1027.2
20181212041827 40 15 0.0 0.0 0.00 0.00 0.00 82 1027.6
20181212040331 40 15 0.0 0.0 0.00 0.00 0.00 81 1027.4
20181212034832 40 15 0.0 0.0 0.00 0.00 0.00 79 1027.5
20181212033334 40 15 0.0 0.0 0.00 0.00 0.00 77 1027.4
20181212031836 40 15 0.0 0.0 0.00 0.00 0.00 75 1027.4
20181212030334 40 15 0.0 0.0 0.00 0.00 0.00 73 1027.5
20181212024819 40 15 0.0 0.0 0.00 0.00 0.00 69 1027.5
20181212023338 41 15 0.0 0.0 0.00 0.00 0.00 66 1027.6
20181212021823 40 15 0.0 0.0 0.00 0.00 0.00 66 1027.7
20181212020322 40 15 0.0 0.0 0.00 0.00 0.00 71 1027.7